Location: Alsip
(41.6689°N, 87.7387°W)
Time: 14:25:38
(UTC+00:00)

Cosmos 1933 - Pass Details

Date: 14 July 2020
Orbit: 547 x 563 km, 82.5° (Epoch: 05 August)

Event Time Altitude Azimuth Distance (km) Brightness Sun altitude
Rises 03:58:37 0° 359° (N) 2,732 7.9 -21.1°
Reaches altitude 10° 04:00:54 10° 7° (N) 1,836 6.7 -21.3°
Enters shadow 04:04:40 40° 76° (ENE) 828 4.0 -21.6°
